Flag for Italy Weather past 2 weeks in Trieste, Italy

Now
79 °F

Clear.


Feels Like: 82 °F
Forecast: 69 / 81 °F
Wind: 1 mph from Northeast

Location: Trieste

Current Time: Jul 8, 2015 at 2:05:38 AM

Latest Report: Jul 8, 2015 at 1:00 AM


Visibility: 13 mi

Pressure: 29.90 "Hg

Humidity: 82%

Dew point: 73 °F

Location of TriesteLocation

Historic Weather in Trieste — Graph

°F

Trieste temperature yesterday

Maximum temperature yesterday: 89 °F (at 2:00 PM)
Minimum temperature yesterday: 76 °F (at 6:00 AM)
Average temperature yesterday: 83 °F

Past Weeks' High & Low Weather Summary

 TemperatureHumidityPressure
High90 °F (Jul 5, 3:00 PM)92% (Jul 6, 3:00 AM)30.23 "Hg (Jul 6, 3:00 AM)
Low56 °F (Jun 23, 11:00 PM)2% (Jul 2, 7:00 AM)29.76 "Hg (Jun 23, 11:00 AM)
Average76 °F66%30.08 "Hg
* Reported Midnight between Jun 22 and Jun 23 — Midnight between Jul 7 and Jul 8, Trieste, Weather by CustomWeather, © 2015

Note: Actual official high and low records may vary slightly from our data, if they occured in-between our weather recording intervals... More about our weather records

Advertising

Trieste weather history for previous 24 hours

 ConditionsComfort  
Time TempWeatherWind HumidityBarometerVisibility
12:00 AM
Wed, Jul 8
80 °FClear.1 mph76%29.90 "Hg12 mi
11:00 PM
Tue, Jul 7
80 °FClear.1 mph72%29.90 "Hg12 mi
10:00 PM81 °FClear.2 mph80%29.90 "Hg12 mi
9:00 PM85 °FClear.No wind82%29.90 "Hg12 mi
8:00 PM86 °FSunny.1 mph78%29.90 "Hg12 mi
7:00 PM88 °FFog.2 mph76%29.91 "Hg2 mi
6:00 PM89 °FFog.1 mph79%29.93 "Hg2 mi
5:00 PM89 °FFog.1 mph74%29.95 "Hg2 mi
4:00 PM89 °FFog.2 mph71%29.95 "Hg2 mi
3:00 PM89 °FFog.1 mph68%29.96 "Hg2 mi
2:00 PM89 °FSunny.2 mph72%29.98 "Hg6 mi
1:00 PM88 °FSunny.1 mph70%29.99 "Hg6 mi
12:00 PM85 °FSunny.1 mph78%29.99 "Hg6 mi
11:00 AM84 °FSunny.No wind72%29.99 "Hg6 mi
10:00 AM83 °FSunny.No wind74%29.99 "Hg6 mi
9:00 AM83 °FSunny.No wind71%30.01 "Hg6 mi
8:00 AM81 °FSunny.No wind74%30.01 "Hg6 mi
7:00 AM77 °FSunny.No wind82%30.02 "Hg6 mi
6:00 AM76 °FSunny.1 mph88%30.01 "Hg6 mi
4:00 AM76 °FClear.1 mph89%30.01 "Hg6 mi
3:00 AM77 °FClear.1 mph86%30.02 "Hg6 mi
2:00 AM77 °FClear.1 mph87%30.02 "Hg6 mi
Weather by CustomWeather, © 2015

See weather overviewHow to use our weather pages